TimeEDT,TemperatureF,Dew PointF,Humidity,Sea Level PressureIn,VisibilityMPH,Wind Direction,Wind SpeedMPH,Gust SpeedMPH,PrecipitationIn,Events,Conditions,WindDirDegrees,DateUTC
12:54 AM,57.0,51.1,81,29.81,10.0,SW,4.6,-,N/A,,Clear,230,2013-06-13 04:54:00
1:54 AM,57.9,51.1,78,29.81,10.0,Calm,Calm,-,N/A,,Clear,0,2013-06-13 05:54:00
2:54 AM,55.9,51.1,84,29.81,10.0,Calm,Calm,-,N/A,,Clear,0,2013-06-13 06:54:00
3:54 AM,55.9,51.1,84,29.80,10.0,Calm,Calm,-,N/A,,Clear,0,2013-06-13 07:54:00
4:54 AM,54.0,50.0,86,29.82,10.0,South,3.5,-,N/A,,Clear,190,2013-06-13 08:54:00
5:54 AM,54.0,50.0,86,29.82,10.0,Calm,Calm,-,N/A,,Clear,0,2013-06-13 09:54:00
6:54 AM,57.9,52.0,81,29.82,10.0,SW,4.6,-,N/A,,Clear,220,2013-06-13 10:54:00
7:54 AM,62.1,53.1,72,29.83,10.0,WSW,4.6,-,N/A,,Clear,240,2013-06-13 11:54:00
8:54 AM,66.9,53.1,61,29.82,10.0,Calm,Calm,-,N/A,,Clear,0,2013-06-13 12:54:00
9:54 AM,68.0,52.0,56,29.81,10.0,Calm,Calm,-,N/A,,Clear,0,2013-06-13 13:54:00
10:54 AM,69.1,52.0,54,29.80,10.0,Calm,Calm,-,N/A,,Clear,0,2013-06-13 14:54:00
11:54 AM,70.0,53.1,55,29.79,10.0,SE,3.5,-,N/A,,Mostly Cloudy,140,2013-06-13 15:54:00
12:54 PM,66.9,54.0,63,29.80,10.0,SSW,3.5,-,0.00,Rain,Light Rain,200,2013-06-13 16:54:00
1:54 PM,62.1,55.0,78,29.76,8.0,South,3.5,-,0.02,Rain,Light Rain,180,2013-06-13 17:54:00
2:54 PM,62.1,55.9,80,29.76,8.0,Calm,Calm,-,0.04,Rain,Light Rain,0,2013-06-13 18:54:00
3:10 PM,62.6,57.2,82,29.76,9.0,SSW,4.6,-,0.01,Rain,Light Rain,210,2013-06-13 19:10:00
3:22 PM,62.6,57.2,82,29.76,6.0,SSW,4.6,-,0.02,Rain,Light Rain,200,2013-06-13 19:22:00
3:50 PM,60.8,57.2,88,29.77,6.0,SW,4.6,-,0.04,Rain,Light Rain,220,2013-06-13 19:50:00
3:54 PM,60.1,57.0,90,29.78,5.0,SW,5.8,-,0.05,Rain,Light Rain,220,2013-06-13 19:54:00
4:03 PM,59.0,55.4,88,29.78,3.0,SW,9.2,17.3,0.03,Rain,Rain,220,2013-06-13 20:03:00
4:17 PM,57.2,55.4,94,29.78,4.0,Variable,5.8,-,0.06,Rain,Rain,0,2013-06-13 20:17:00
4:30 PM,57.2,55.4,94,29.78,5.0,SSE,3.5,-,0.08,Rain,Light Rain,160,2013-06-13 20:30:00
4:54 PM,59.0,54.0,83,29.78,7.0,South,3.5,-,0.10,Rain,Light Rain,170,2013-06-13 20:54:00
5:54 PM,57.9,54.0,87,29.74,10.0,Calm,Calm,-,0.00,,Overcast,0,2013-06-13 21:54:00
6:54 PM,57.9,53.1,84,29.76,10.0,Calm,Calm,-,0.00,Rain,Light Rain,0,2013-06-13 22:54:00
7:54 PM,57.0,52.0,83,29.76,10.0,Calm,Calm,-,0.03,Rain,Light Rain,0,2013-06-13 23:54:00
8:54 PM,55.9,52.0,87,29.75,10.0,NNE,5.8,-,0.06,Rain,Light Rain,30,2013-06-14 00:54:00
9:54 PM,55.9,52.0,87,29.76,9.0,Calm,Calm,-,0.03,Rain,Light Rain,0,2013-06-14 01:54:00
10:54 PM,55.0,50.0,83,29.75,9.0,NE,4.6,-,0.02,Rain,Light Rain,50,2013-06-14 02:54:00
11:54 PM,54.0,51.1,90,29.72,6.0,NNE,9.2,-,0.07,Rain,Light Rain,20,2013-06-14 03:54:00